Voltar ao catálogo

STARLINK-3110

AtivoComunicaçõesVLEO
NORAD 49420·PAYLOAD·🇺🇸 United States

Lançado Nov 13, 2021 de Cape Canaveral Space Force Station

Loading…

Próximas Passagens (próximas 24 horas)

TLE

AtualizadoSource: CelesTrak SupGP

Época: Sep 14, 2026, 21:57 UTC

1 49420C 21104N   26257.91506944  .00034891  00000+0  10313-2 0  2578
2 49420  53.1582  85.7684 0001213  83.4409  60.0665 15.34360940    17

Acompanhe STARLINK-3110 em tempo real com AllMySat

Download on the App Store